Change the Weather History Date:

Friday, August 2, 2013

  Actual Average (KCUH) Record (KCUH)
Temperature  
Mean Temperature 88 °F -  
Max Temperature 98 °F 92 °F 113 °F (2011)
Min Temperature 77 °F 69 °F 59 °F (1971)
Cooling Degree Days 22    
Growing Degree Days 38 (Base 50)    
Moisture  
Dew Point 78 °F    
Average Humidity 75    
Maximum Humidity 100    
Minimum Humidity 50    
Precipitation  
Precipitation 0.00 in - - ()
Sea Level Pressure  
Sea Level Pressure 29.89 in    
Wind  
Wind Speed 8 mph (South)    
Max Wind Speed 15 mph    
Max Gust Speed 21 mph    
Visibility 10 miles    
Events      
Averages and records for this station are not official NWS values.
T = Trace of Precipitation, MM = Missing Value Source: NWS Daily Summary

Daily Weather History Graph

Daily Weather History Graph

Search for Another Location

Airport or City:

Trip Planner

Search our weather history database for the weather conditions in past years. The results will help you decide how hot, cold, wet, or windy it might be!

Date:

Astronomy

Aug. 02, 2013 Rise Set
Actual Time 6:36 AM CDT 8:30 PM CDT
Civil Twilight 6:08 AM CDT 8:58 PM CDT
Nautical Twilight 5:34 AM CDT 9:32 PM CDT
Astronomical Twilight 4:57 AM CDT 10:08 PM CDT
Moon 2:59 AM CDT (8/2) 5:27 PM CDT (8/2)
Length of Visible Light 14h 50m
Length of Day
13h 54m
Waning Crescent, 15% of the Moon is Illuminated
Aug 2
Waning Crescent
Aug 6
New
Aug 14
First Quarter
Aug 20
Full
Aug 28
Last Quarter

Hourly Weather History & Observations

Time (CDT) Temp. Heat Index Dew Point Humidity Pressure Visibility Wind Dir Wind Speed Gust Speed Precip Events Conditions
12:15 AM 78.8 °F - 77.0 °F 94% 29.97 in 10.0 mi ESE 4.6 mph - N/A   Clear
12:35 AM 77.0 °F - 77.0 °F 100% 29.98 in 10.0 mi SE 3.5 mph - N/A   Clear
12:55 AM 77.0 °F - 77.0 °F 100% 29.97 in 10.0 mi SE 4.6 mph - N/A   Clear
1:15 AM 77.0 °F - 77.0 °F 100% 29.96 in 10.0 mi SE 5.8 mph - N/A   Clear
1:35 AM 77.0 °F - 77.0 °F 100% 29.95 in 10.0 mi SSE 5.8 mph - N/A   Clear
1:55 AM 77.0 °F - 77.0 °F 100% 29.94 in 10.0 mi SE 4.6 mph - N/A   Clear
2:15 AM 77.0 °F - 77.0 °F 100% 29.94 in 10.0 mi SSE 4.6 mph - N/A   Clear
2:35 AM 77.0 °F - 77.0 °F 100% 29.93 in 10.0 mi South 4.6 mph - N/A   Clear
2:55 AM 78.8 °F - 77.0 °F 94% 29.93 in 10.0 mi South 5.8 mph - N/A   Clear
3:15 AM 78.8 °F - 77.0 °F 94% 29.93 in 10.0 mi South 6.9 mph - N/A   Clear
3:35 AM 78.8 °F - 77.0 °F 94% 29.94 in 10.0 mi South 9.2 mph - N/A   Clear
3:55 AM 78.8 °F - 77.0 °F 94% 29.93 in 10.0 mi South 8.1 mph - N/A   Clear
4:15 AM 80.6 °F 87.1 °F 77.0 °F 89% 29.93 in 10.0 mi South 8.1 mph - N/A   Clear
4:35 AM 78.8 °F - 77.0 °F 94% 29.91 in 10.0 mi South 9.2 mph - N/A   Clear
4:55 AM 78.8 °F - 77.0 °F 94% 29.91 in 10.0 mi South 8.1 mph - N/A   Clear
5:15 AM 78.8 °F - 77.0 °F 94% 29.91 in 10.0 mi South 9.2 mph - N/A   Clear
5:35 AM 78.8 °F - 77.0 °F 94% 29.91 in 10.0 mi South 9.2 mph - N/A   Clear
5:55 AM 78.8 °F - 77.0 °F 94% 29.91 in 10.0 mi South 6.9 mph - N/A   Clear
6:15 AM 78.8 °F - 77.0 °F 94% 29.91 in 10.0 mi South 8.1 mph - N/A   Clear
6:35 AM 78.8 °F - 77.0 °F 94% 29.90 in 7.0 mi South 8.1 mph - N/A   Clear
6:55 AM 78.8 °F - 77.0 °F 94% 29.91 in 7.0 mi SSE 6.9 mph - N/A   Clear
7:35 AM 78.8 °F - 77.0 °F 94% 29.90 in 10.0 mi South 9.2 mph - N/A   Clear
7:55 AM 80.6 °F 87.1 °F 77.0 °F 89% 29.91 in 10.0 mi South 9.2 mph 17.3 mph N/A   Clear
8:15 AM 80.6 °F 87.1 °F 77.0 °F 89% 29.90 in 10.0 mi South 9.2 mph - N/A   Clear
8:35 AM 80.6 °F 87.1 °F 77.0 °F 89% 29.90 in 10.0 mi South 9.2 mph - N/A   Clear
8:55 AM 80.6 °F 87.1 °F 77.0 °F 89% 29.91 in 10.0 mi South 10.4 mph - N/A   Clear
9:15 AM 80.6 °F 87.1 °F 77.0 °F 89% 29.90 in 10.0 mi South 10.4 mph - N/A   Clear
9:35 AM 82.4 °F 90.9 °F 77.0 °F 84% 29.91 in 10.0 mi South 5.8 mph - N/A   Clear
9:55 AM 82.4 °F 92.4 °F 78.8 °F 89% 29.92 in 10.0 mi South 5.8 mph - N/A   Clear
10:15 AM 84.2 °F 96.1 °F 78.8 °F 84% 29.91 in 10.0 mi South 8.1 mph - N/A   Clear
10:35 AM 87.8 °F 102.5 °F 78.8 °F 75% 29.91 in 10.0 mi SSW 8.1 mph - N/A   Clear
10:55 AM 87.8 °F 102.5 °F 78.8 °F 75% 29.92 in 10.0 mi South 8.1 mph - N/A   Clear
11:15 AM 89.6 °F 104.7 °F 78.8 °F 70% 29.92 in 10.0 mi SSW 10.4 mph - N/A   Clear
11:35 AM 89.6 °F 104.7 °F 78.8 °F 70% 29.92 in 7.0 mi South 6.9 mph - N/A   Clear
11:55 AM 89.6 °F 104.7 °F 78.8 °F 70% 29.91 in 7.0 mi South 8.1 mph - N/A   Clear
12:15 PM 91.4 °F 107.2 °F 78.8 °F 66% 29.91 in 7.0 mi SSW 6.9 mph - N/A   Clear
12:35 PM 91.4 °F 107.2 °F 78.8 °F 66% 29.92 in 5.0 mi South 4.6 mph - N/A   Haze
12:55 PM 95.0 °F 112.2 °F 78.8 °F 59% 29.91 in 10.0 mi South 6.9 mph - N/A   Scattered Clouds
1:15 PM 95.0 °F 112.2 °F 78.8 °F 59% 29.90 in 7.0 mi South 6.9 mph - N/A   Clear
1:35 PM 95.0 °F 112.2 °F 78.8 °F 59% 29.90 in 10.0 mi South 8.1 mph - N/A   Clear
1:55 PM 96.8 °F 114.8 °F 78.8 °F 56% 29.89 in 7.0 mi South 10.4 mph - N/A   Clear
2:15 PM 96.8 °F 114.8 °F 78.8 °F 56% 29.88 in 10.0 mi South 9.2 mph 18.4 mph N/A   Clear
2:35 PM 96.8 °F 114.8 °F 78.8 °F 56% 29.88 in 10.0 mi SSW 10.4 mph 16.1 mph N/A   Clear
2:55 PM 96.8 °F 114.8 °F 78.8 °F 56% 29.87 in 7.0 mi South 11.5 mph 17.3 mph N/A   Clear
3:15 PM 96.8 °F 114.8 °F 78.8 °F 56% 29.87 in 10.0 mi SSW 11.5 mph 18.4 mph N/A   Clear
3:35 PM 98.6 °F 117.2 °F 78.8 °F 53% 29.87 in 10.0 mi SSW 15.0 mph - N/A   Clear
3:55 PM 98.6 °F 117.2 °F 78.8 °F 53% 29.86 in 10.0 mi SSW 15.0 mph - N/A   Clear
4:15 PM 98.6 °F 117.2 °F 78.8 °F 53% 29.85 in 10.0 mi SSW 12.7 mph - N/A   Clear
4:35 PM 98.6 °F 114.4 °F 77.0 °F 50% 29.85 in 10.0 mi SW 12.7 mph 20.7 mph N/A   Clear
4:55 PM 98.6 °F 114.4 °F 77.0 °F 50% 29.85 in 10.0 mi SW 13.8 mph - N/A   Clear
5:15 PM 98.6 °F 114.4 °F 77.0 °F 50% 29.85 in 10.0 mi SSW 12.7 mph 20.7 mph N/A   Clear
5:35 PM 98.6 °F 114.4 °F 77.0 °F 50% 29.85 in 10.0 mi SSW 11.5 mph 17.3 mph N/A   Clear
5:55 PM 98.6 °F 117.2 °F 78.8 °F 53% 29.84 in 7.0 mi SSW 8.1 mph - N/A   Clear
6:15 PM 98.6 °F 114.4 °F 77.0 °F 50% 29.84 in 10.0 mi South 9.2 mph - N/A   Clear
6:35 PM 98.6 °F 114.4 °F 77.0 °F 50% 29.84 in 7.0 mi South 9.2 mph - N/A   Clear
6:55 PM 96.8 °F 112.2 °F 77.0 °F 53% 29.84 in 10.0 mi South 9.2 mph - N/A   Clear
7:15 PM 96.8 °F 112.2 °F 77.0 °F 53% 29.84 in 7.0 mi South 8.1 mph - N/A   Clear
7:35 PM 95.0 °F 109.7 °F 77.0 °F 56% 29.84 in 10.0 mi South 6.9 mph - N/A   Clear
7:55 PM 91.4 °F 107.2 °F 78.8 °F 66% 29.84 in 10.0 mi SSE 5.8 mph - N/A   Clear
8:15 PM 89.6 °F 104.7 °F 78.8 °F 70% 29.85 in 10.0 mi SSE 6.9 mph - N/A   Clear
8:35 PM 89.6 °F 104.7 °F 78.8 °F 70% 29.85 in 10.0 mi SSE 6.9 mph - N/A   Clear
8:55 PM 89.6 °F 104.7 °F 78.8 °F 70% 29.85 in 10.0 mi South 6.9 mph - N/A   Clear
9:15 PM 89.6 °F 104.7 °F 78.8 °F 70% 29.85 in 10.0 mi South 8.1 mph - N/A   Clear
9:35 PM 89.6 °F 104.7 °F 78.8 °F 70% 29.85 in 10.0 mi South 10.4 mph - N/A   Clear
9:55 PM 89.6 °F 102.2 °F 77.0 °F 66% 29.85 in 10.0 mi South 10.4 mph 16.1 mph N/A   Clear
10:15 PM 89.6 °F 102.2 °F 77.0 °F 66% 29.85 in 10.0 mi South 11.5 mph - N/A   Clear
10:35 PM 89.6 °F 99.8 °F 75.2 °F 62% 29.86 in 10.0 mi South 11.5 mph - N/A   Clear
10:55 PM 89.6 °F 99.8 °F 75.2 °F 62% 29.86 in 10.0 mi SSW 13.8 mph 19.6 mph N/A   Clear
11:15 PM 89.6 °F 99.8 °F 75.2 °F 62% 29.86 in 10.0 mi South 12.7 mph - N/A   Clear
11:35 PM 89.6 °F 99.8 °F 75.2 °F 62% 29.87 in 10.0 mi SSW 10.4 mph 16.1 mph N/A   Clear
11:55 PM 87.8 °F 97.6 °F 75.2 °F 66% 29.88 in 10.0 mi South 11.5 mph 18.4 mph N/A   Clear